Showing default

KUIPER-00420, 68932

Orbit data source: Space-Track

KUIPER-00420, 68932 is a payload satellite owned by Kuiper Systems (US) in LEO that was launched on Thu, 30 Apr 2026 UTC via an ARIANE 64 launch vehicle from the French Guiana (FRGUI). Payload-class satellites include a variety of spacecraft equipped with specific instruments for various scientific and technological missions. These include communications satellites like Starlink; space stations such as the ISS; scientific satellites like the Hubble; Earth observation satellites from companies like Planet Labs, Umbra, and HawkEye 360; GPS; miniature CubeSats for education and research; and military/defense satellites.

Loading next visibility...
Identifier
68932, 2026-098P
Orbit
LEO
Country
Flag of USUS
Related business
Manufacturer
Kuiper Systems
Mission
Operational spacecraft
Bus & Motor
KUIPER, Unknown motor
Mass
~490 kg wet, ~490 kg dry
Launch date (UTC)
2026-04-30 (1 month ago)
Launch vehicle
ARIANE 64
Launch site
French Guiana (FRGUI)
Object type
Payload
Rocket body
Debris
Shape & HBR
Unknown
Radar Cross Section
Large (>1 m²)

Expand to show TLE details & history
Last TLE update: 3 days ago

TLE from 3 days ago
0 KUIPER-00420
1 68932U 26098P   26155.13063746  .00040951  00000-0  11684-2 0  9993
2 68932  51.8769 130.5056 0003709 107.8246 252.3145 15.35635641  5346
Epoch: 2026-06-04T03:08Z
TLE epoch observation values (Epoch: 2026-06-04T03:08:07.076Z)
Latitude
-0.00001°
Longitude
-169.10321°
Altitude
460.567 km
Speed
7.637 km/s
True Right ascension
08h 42m 01s
True Declination
0° 00' 00"
Sunlit
Object was in daylight at epoch
Visualization orbit readout
Latitude
Unknown
Longitude
Unknown
Altitude
Unknown
Speed
Unknown
Apparent Right ascension
Unknown
Apparent Declination
Unknown
Sunlit
N/A
Visualization observer readout
Local Sidereal Time
03:05:19
Azimuth
Unknown
Elevation
Unknown
Doppler factor
Unknown
Orbital elements
Apogee altitude
462.035 km
Perigee altitude
456.963 km
Semi-major axis
6,837.636 km
Eccentricity
0.00037
Inclination
51.8769°
RAAN
130.5056°
Arg. of periapsis
107.8246°
True anomaly
252.27401°
Mean anomaly
252.3145°
Eccentric anomaly
252.29426°
Mean motion
3.8387 °/min
Orbital period
93.78 mins
BSTAR
0.0011684
Loading maneuver chart data...
Computing Atmospheric mass density...
Loading historical data...
Loading historical data...
Loading historical data...
Loading historical data...
Loading historical data...
Loading historical data...
Loading historical data...

Documentation

Showing up to 5 results
|